User: anonymous   Login
Location: Mentone
(34.5413°N, 85.5351°W)
Time: 03:12:34
(UTC-06:00)
Language:

Cosmos 1703 - Orbit

View from above orbital plane
View from above orbital plane
View from above satellite
View from above satellite

Ground track
Ground track

The orbit data is extracted from the following two-line orbital elements,

1 16262U 85108A   15027.83733769  .00002632  00000-0  17200-3 0  6173
2 16262 082.4890 023.8913 0015341 066.6221 293.6618 15.07330371587468
Epoch (UTC): 27 January 2015 20:05:45
Eccentricity: 0.0015341
inclination: 82.4890°
perigee height: 534 km
apogee height: 555 km
right ascension of ascending node: 23.8913°
argument of perigee: 66.6221°
revolutions per day: 15.07330371
mean anomaly at epoch: 293.6618°
orbit number at epoch: 58746

The dashed part of the orbit path shows where the satellite is in the earth's shadow,  

DLR